RH
34 34 34 35 36 38 39 41 44 48 51 52 52 51 50 48 46 43 41 39 38 37 37 38 38 38 39 38 38 37 37 37 36 36 36 36 36 35 35 34 33 32 31 31 31 30 30 30 30 30 30 30 30 30 30 30 30 30 30 30 30 30 30 30 30 30 30 30 30 30 30 31 31 31 31 31 31 32 32 33 34 34 34 34 33 33
33 34 35 36 38 40 43 45 47 50 53 53 52 51 49 47 44 43 41 40 39 39 39 40 40 40 41 40 39 39 38 38 38 38 38 38 37 36 35 35 34 33 32 32 31 31 31 31 31 31 31 31 31 31 31 31 31 31 31 31 31 31 31 31 32 32 32 32 32 32 32 33 33 33 33 33 33 33 33 34 34 35 35 35 35 34
35 36 37 39 41 44 46 49 51 53 54 54 52 50 48 45 43 42 42 41 41 41 42 42 42 43 42 41 40 40 39 39 39 39 39 39 38 37 36 35 35 34 33 33 32 32 31 31 31 31 31 31 31 31 31 31 31 31 32 32 32 33 33 33 33 34 34 34 34 35 35 35 35 35 35 35 35 35 34 35 35 35 36 36 36 36
38 40 41 42 44 47 50 52 54 55 55 53 52 50 47 45 43 43 43 43 43 44 44 44 44 44 43 42 41 41 41 41 41 41 41 40 39 38 37 36 35 34 34 33 33 32 32 32 32 31 31 31 31 31 31 32 32 32 33 33 34 34 35 35 35 36 36 36 37 37 37 38 38 38 38 38 37 37 36 36 36 36 37 37 37 37
42 43 44 46 48 51 52 54 55 55 54 53 51 49 46 45 44 44 45 45 46 46 47 46 46 45 44 43 42 42 42 43 43 43 42 41 40 39 38 37 36 35 35 34 34 33 33 32 32 32 32 32 32 32 32 33 33 34 34 35 35 36 36 37 37 38 38 39 39 40 40 40 41 41 41 41 40 40 39 38 38 37 37 38 38 39
45 46 47 49 51 52 54 55 55 54 53 51 49 47 46 45 45 46 47 48 48 49 49 48 47 45 44 43 43 44 44 45 45 44 43 42 41 40 39 38 37 36 35 35 34 34 33 33 32 32 32 32 33 33 33 34 34 35 35 36 37 38 38 39 40 40 41 41 42 42 43 43 43 44 44 44 43 43 42 41 40 39 39 39 39 40
47 48 49 50 52 53 54 55 54 53 51 49 47 46 46 46 47 48 49 50 51 51 50 48 46 45 44 45 46 47 47 47 46 45 44 43 41 40 39 38 37 37 36 35 35 34 34 33 33 33 33 33 33 34 34 35 35 36 37 38 39 39 40 41 42 43 43 44 44 45 45 46 46 47 47 47 47 46 45 44 43 41 41 40 41 41
49 50 51 52 53 54 54 54 53 52 50 48 46 45 46 48 50 51 52 52 52 52 51 48 47 46 46 48 49 50 50 49 48 46 44 43 42 41 40 39 38 37 36 36 35 35 35 34 34 34 33 34 34 35 35 36 37 37 38 39 40 41 42 43 44 45 46 47 47 48 48 49 49 50 50 50 50 49 49 47 45 44 42 42 42 42
50 51 52 53 54 54 54 53 52 50 49 47 46 46 47 50 52 54 55 54 53 52 50 49 48 48 50 51 52 53 52 50 48 46 45 43 42 41 40 39 38 38 37 37 37 36 36 35 35 35 35 35 36 36 37 38 38 39 40 41 42 43 44 45 46 47 49 49 50 51 51 52 52 53 53 53 53 52 51 50 48 46 44 43 43 43
51 52 53 53 53 53 53 51 50 49 48 47 48 49 50 52 54 56 57 56 54 51 50 50 51 52 54 55 55 54 52 50 48 46 45 44 43 42 41 40 39 39 39 38 38 38 37 37 36 36 36 37 37 38 39 39 40 40 41 42 43 44 45 47 48 49 50 51 52 53 54 55 55 56 56 56 56 55 54 52 50 48 46 44 44 43
51 52 53 53 53 52 51 49 48 48 48 48 49 51 53 55 57 58 58 57 55 53 51 52 54 56 58 58 56 54 52 50 48 46 45 44 43 42 41 41 40 40 40 40 40 39 39 38 38 38 38 39 39 40 40 40 41 41 42 43 44 45 46 48 49 50 51 53 54 55 56 57 57 58 58 58 58 57 56 54 52 50 48 46 45 44
50 52 53 53 53 52 50 48 47 47 47 48 51 54 57 58 59 59 59 57 56 56 56 57 59 60 61 59 57 54 51 50 48 47 45 44 43 42 42 41 41 41 41 41 41 41 40 40 40 40 40 40 41 41 41 41 42 42 43 43 44 45 47 48 49 51 52 53 54 56 57 58 59 59 60 60 59 59 58 56 54 51 49 47 46 45
49 51 53 53 52 51 49 47 46 46 47 50 54 58 61 61 61 60 60 59 60 61 62 64 64 63 62 59 56 53 51 50 48 46 45 44 43 43 43 42 42 42 42 42 42 42 42 42 41 41 41 42 42 42 42 42 42 42 43 43 44 45 46 48 49 50 52 53 55 56 57 59 59 60 60 60 60 60 58 57 54 52 50 48 47 46
48 51 52 52 52 50 49 48 48 49 51 54 58 61 63 63 62 62 63 64 65 66 67 68 67 65 61 58 55 52 51 49 48 46 45 44 44 43 43 43 43 42 43 43 43 43 42 42 42 42 42 42 42 42 42 42 42 42 43 43 44 44 45 47 48 49 51 53 54 56 57 58 59 60 60 60 60 60 58 57 54 52 50 49 47 47
48 50 51 51 51 50 49 50 51 53 56 59 62 64 65 66 66 67 68 69 70 71 70 69 67 63 60 56 54 52 51 49 48 47 45 44 44 43 44 44 43 43 42 43 43 42 42 42 42 42 42 42 42 42 41 41 41 42 42 42 43 44 44 45 47 48 49 51 52 54 56 57 58 59 60 60 60 59 58 56 54 52 50 49 48 48
49 51 52 52 51 51 51 52 55 58 60 63 66 68 69 70 71 72 73 73 73 72 70 67 64 61 58 55 52 51 50 49 48 47 45 45 44 43 43 44 43 42 42 42 42 42 41 41 41 41 41 41 41 41 41 41 41 41 42 42 43 43 44 44 45 46 48 49 51 52 54 55 56 58 58 59 59 58 57 55 53 51 50 49 49 48
52 54 54 53 53 53 54 56 59 62 65 68 69 71 72 74 75 75 75 74 72 70 67 64 61 59 57 54 52 50 49 49 48 46 45 45 44 44 43 44 43 43 42 42 41 41 41 41 41 41 41 41 40 40 41 41 41 41 42 42 42 43 43 44 45 46 47 48 49 50 52 53 54 56 56 57 57 56 55 54 52 51 51 50 50 49
57 58 57 56 56 57 59 62 65 67 70 72 73 74 75 75 75 75 74 72 69 66 63 61 59 57 56 54 52 49 48 48 47 46 45 45 45 45 44 44 44 43 43 42 41 41 41 41 41 41 41 41 41 41 41 41 42 42 42 42 43 43 43 44 45 45 46 47 48 50 51 52 53 54 54 55 55 54 54 53 52 52 51 51 50 50
61 61 60 60 60 62 64 67 70 72 75 76 76 76 76 75 74 73 71 68 66 63 61 59 57 56 54 53 51 48 47 47 47 46 46 46 46 46 46 45 45 44 43 42 42 41 41 42 42 42 42 42 42 43 43 43 43 43 43 43 43 43 44 44 45 46 47 48 49 49 50 51 52 52 53 53 53 53 53 52 52 52 51 51 50 49
65 65 63 63 65 67 70 72 74 76 77 77 77 76 76 74 72 70 68 65 63 61 59 58 57 55 54 52 50 48 47 47 47 47 47 47 47 47 47 46 46 45 44 43 43 43 43 43 43 43 43 44 44 44 44 44 44 44 44 44 44 44 45 45 46 47 48 49 49 50 51 51 51 52 52 52 52 52 52 52 52 51 51 50 49 48
70 69 67 67 69 72 75 77 77 77 76 76 76 75 74 72 70 68 65 63 61 60 58 58 56 55 53 52 51 49 47 47 48 48 48 48 48 48 47 47 46 45 45 44 44 44 44 45 45 45 45 45 45 45 45 45 45 45 45 45 45 46 46 47 47 48 49 49 50 51 51 51 52 52 52 52 52 52 52 52 51 50 50 48 48 47
73 73 73 73 75 76 78 78 77 76 76 75 75 74 72 70 68 66 63 62 60 59 58 57 55 54 53 53 51 50 48 49 49 50 50 50 50 49 48 47 47 46 46 45 45 46 46 46 46 46 46 47 47 47 47 47 47 47 47 47 47 47 48 48 49 49 50 50 51 51 51 52 52 52 52 52 52 51 51 50 49 49 47 46 45 45
77 78 78 78 78 78 78 77 77 76 75 74 74 72 70 68 66 65 63 61 60 58 57 55 54 54 54 53 52 51 51 51 51 52 52 52 51 49 48 48 48 47 47 47 47 47 48 48 48 48 48 49 49 49 49 49 49 49 49 49 49 49 49 49 50 50 51 51 51 51 52 52 52 51 51 51 51 50 49 48 47 47 46 45 44 43
80 80 80 79 79 78 78 77 76 75 74 73 72 70 68 67 65 63 61 60 58 57 56 55 54 54 54 54 54 54 54 53 54 54 54 53 51 50 49 49 48 48 48 48 49 49 50 50 50 50 50 51 51 51 51 51 51 51 50 50 50 50 50 50 51 51 51 51 51 51 51 51 51 51 50 50 49 48 48 47 46 46 45 44 44 43
81 81 80 79 79 78 77 77 76 75 74 72 71 69 67 65 63 62 60 59 58 57 56 56 56 56 56 56 56 57 56 56 55 55 54 53 52 51 50 50 50 49 50 50 51 52 52 52 52 52 52 52 52 52 52 52 52 52 52 52 51 51 51 51 51 52 52 52 52 51 51 51 50 50 49 48 48 47 47 46 46 46 45 45 44 44
81 80 80 79 79 78 77 77 76 74 73 71 70 68 66 64 63 62 60 59 58 58 58 58 58 58 58 58 59 59 58 57 56 56 55 54 53 52 51 51 51 52 52 53 54 54 54 54 54 54 54 54 54 54 54 54 54 54 53 53 53 53 53 53 53 53 52 52 52 51 51 50 50 49 48 48 47 47 46 46 46 46 45 45 45 45
80 80 79 79 78 78 77 76 75 73 72 70 68 66 65 64 63 63 62 60 60 60 60 60 60 60 60 61 61 60 59 58 57 56 56 55 54 54 52 53 54 55 56 56 56 56 57 56 56 56 55 55 55 55 55 55 55 55 55 54 54 54 54 54 54 54 53 53 52 52 51 50 50 49 48 48 47 47 46 46 46 46 45 45 45 45
80 79 79 78 77 77 76 75 73 72 70 68 67 65 65 65 65 64 63 62 62 62 63 63 63 63 63 63 63 62 61 60 59 57 56 56 56 56 55 56 57 58 59 59 59 58 58 58 57 57 57 57 56 56 56 56 56 56 56 56 56 56 56 56 56 56 55 54 54 53 52 51 51 50 49 48 48 47 46 46 46 46 46 45 45 44
79 78 78 77 76 75 74 73 72 70 68 67 66 66 66 66 66 66 65 64 65 65 66 65 66 66 66 65 64 64 63 61 60 59 58 58 59 58 58 58 59 60 60 60 60 60 59 58 58 58 58 57 57 57 57 57 58 58 58 58 58 58 59 59 58 58 57 56 56 55 54 53 52 51 50 49 48 47 47 47 47 47 46 46 45 44
78 77 77 76 75 74 73 72 70 69 68 67 67 67 67 68 68 68 68 68 68 69 69 69 68 68 68 67 67 66 65 63 62 61 61 62 62 61 60 60 61 61 61 61 61 61 60 58 58 57 58 58 58 58 58 59 59 60 60 60 60 61 61 61 61 60 60 59 58 57 56 55 53 51 50 49 48 47 47 48 48 48 48 47 46 44
77 76 75 74 73 72 71 70 69 69 68 68 69 69 69 70 70 71 71 72 72 72 72 71 70 70 69 69 68 68 67 65 64 64 64 65 64 63 62 63 62 62 61 61 62 62 61 59 58 57 57 58 59 59 60 60 61 62 62 63 63 63 63 63 63 63 62 61 60 59 57 55 53 51 49 48 47 47 48 49 49 50 49 48 45 41
75 75 74 73 72 71 71 70 70 70 71 71 71 71 72 73 73 74 74 75 75 74 74 73 72 71 70 69 69 69 69 67 66 66 66 66 66 65 64 64 63 62 61 61 61 62 62 61 59 58 57 58 59 60 61 62 63 64 65 65 66 66 66 66 66 66 65 64 62 60 58 55 53 50 48 48 48 48 49 50 51 51 49 45 41 35
74 73 73 72 72 72 72 72 73 73 73 74 74 74 74 75 75 76 76 76 76 75 75 74 72 71 70 70 69 69 69 68 67 66 66 67 67 66 65 64 63 62 60 60 60 61 62 61 60 59 59 59 59 60 62 63 65 66 67 68 68 68 68 68 68 67 66 65 63 61 58 55 52 50 48 48 49 50 51 52 51 49 45 40 34 28
74 74 73 74 74 74 75 75 76 76 76 76 76 76 76 76 76 76 76 76 75 75 74 73 73 72 70 70 69 68 68 68 67 66 66 67 67 66 64 63 62 61 61 61 61 61 61 61 61 60 60 59 59 60 61 64 65 67 68 68 69 69 69 69 68 68 66 65 63 60 57 54 51 50 49 50 51 52 52 51 49 44 39 33 27 22
76 76 76 76 77 77 77 78 78 78 78 78 78 78 78 78 77 77 76 75 75 74 73 72 72 71 70 69 68 68 67 67 66 66 66 66 65 64 63 62 61 61 62 62 62 62 63 62 61 60 60 59 59 59 60 62 64 66 67 67 67 67 67 67 66 65 64 62 60 58 55 52 51 51 51 53 53 53 52 48 43 37 31 26 22 18
79 79 79 79 79 79 79 79 80 80 80 80 79 79 79 78 78 77 76 75 74 73 72 71 70 69 69 68 68 68 67 67 66 65 65 64 63 63 63 62 61 61 62 63 64 64 64 63 62 61 60 60 59 59 58 60 61 62 63 63 63 62 62 61 61 60 59 58 56 54 53 52 53 53 55 55 54 51 47 42 36 30 25 21 19 17
80 80 80 80 80 80 80 80 80 80 80 80 80 79 79 78 77 76 75 74 73 72 71 70 69 68 68 67 67 66 66 65 64 63 62 62 61 62 62 62 62 62 63 64 65 65 65 65 64 62 61 60 59 58 57 57 57 58 58 58 57 57 56 55 55 54 54 53 53 53 53 55 56 57 57 55 51 46 40 34 29 24 21 19 18 17
81 81 81 81 81 81 81 81 80 80 80 80 79 79 78 77 76 75 73 72 72 71 70 69 68 67 66 65 63 62 61 61 61 60 60 60 60 61 62 63 63 63 63 64 65 66 66 66 65 64 61 59 57 56 55 54 54 55 55 55 54 54 53 52 52 52 52 52 53 55 57 58 59 58 55 50 44 38 32 27 24 21 19 18 18 17
81 81 81 81 81 81 81 80 80 79 79 78 77 76 76 75 74 73 72 71 71 70 69 68 67 65 62 60 59 58 58 58 58 58 59 59 60 61 63 64 64 64 64 64 65 65 66 65 64 63 61 59 57 55 53 53 53 53 53 53 53 52 52 51 52 52 53 55 57 59 60 60 57 54 48 42 35 30 25 22 21 20 19 19 18 18
81 81 81 81 80 80 79 78 78 77 76 75 74 74 73 72 71 71 70 70 69 68 66 65 62 60 59 58 57 56 56 56 57 57 58 59 60 62 63 64 65 64 64 63 63 63 63 62 61 60 60 58 57 56 54 53 53 52 51 51 51 51 51 51 52 54 56 58 60 61 60 56 51 45 38 32 27 24 22 21 21 21 20 20 19 19
81 81 80 79 78 78 77 76 75 74 73 72 72 71 71 70 70 69 68 67 66 64 62 60 59 58 56 56 56 56 56 56 57 58 59 60 61 62 63 63 63 62 61 61 60 59 59 59 58 58 58 57 57 57 56 54 53 51 50 51 51 52 52 53 54 56 57 58 58 56 53 47 41 34 28 25 23 21 21 22 22 22 21 21 20 20
80 79 78 77 76 75 74 73 72 71 71 70 70 70 69 69 68 67 66 64 62 60 59 57 56 56 55 54 54 54 55 56 57 57 58 59 60 60 60 60 59 58 58 58 57 56 55 55 56 56 57 57 58 58 58 56 53 51 50 51 52 54 56 56 56 55 55 54 51 48 42 36 31 26 23 22 22 22 23 23 23 23 22 21 21 20
78 77 76 75 74 73 72 71 71 70 69 69 69 69 69 68 67 65 63 61 59 58 56 56 55 54 54 53 53 53 53 54 55 55 56 56 56 56 56 56 56 55 55 56 55 55 54 54 55 56 57 58 59 60 60 58 55 53 51 51 54 57 61 60 58 54 50 47 42 38 33 28 25 23 22 23 24 24 25 25 24 23 22 22 21 21
76 75 75 74 73 72 71 70 70 69 69 69 69 69 68 66 64 62 60 59 58 57 56 55 55 54 54 53 52 52 51 51 52 52 52 52 53 53 54 54 55 55 55 56 56 56 56 56 57 58 58 60 62 63 63 61 58 54 51 51 53 58 63 63 60 54 48 42 36 31 27 25 23 23 24 25 26 26 26 26 25 23 22 22 21 21
75 74 74 73 72 71 71 70 69 69 69 69 69 67 65 63 62 60 59 58 57 56 56 56 55 55 55 53 52 51 50 50 50 51 51 52 53 54 55 56 56 57 57 58 59 59 60 60 61 61 62 63 65 66 66 63 59 55 50 50 53 58 63 64 62 57 50 43 36 31 27 25 25 25 26 27 28 28 27 26 25 24 23 22 21 21
74 73 72 72 71 71 71 70 70 69 69 68 66 64 62 61 59 58 57 57 57 56 56 56 56 56 55 54 53 52 51 51 52 52 53 54 55 56 56 57 58 58 59 60 60 61 63 64 65 66 67 68 68 68 66 63 59 54 50 50 53 58 63 65 64 61 55 48 41 35 31 29 28 28 28 29 30 29 28 27 26 24 23 22 22 22
71 71 70 70 70 70 70 69 69 68 67 65 63 61 59 58 57 57 57 56 56 57 57 57 57 56 56 56 55 55 55 55 55 54 55 55 56 57 57 58 58 58 58 59 60 62 64 66 68 70 71 71 70 69 67 63 59 54 51 52 55 60 65 66 65 62 58 52 46 41 36 33 31 30 31 31 31 30 29 27 26 25 23 23 22 22
68 69 69 69 70 69 69 68 67 65 63 61 59 58 57 57 57 57 57 57 57 57 58 58 58 59 59 59 59 58 58 58 57 56 55 55 56 56 57 57 57 56 56 56 57 58 61 63 66 69 71 72 71 70 68 63 60 56 55 56 58 61 65 65 64 61 59 55 51 46 42 39 36 35 34 34 33 32 30 28 26 25 23 22 22 22
68 69 69 69 68 68 66 64 62 61 59 58 57 57 57 57 58 58 59 59 59 60 60 61 62 62 62 62 61 60 60 59 58 57 55 55 55 56 56 56 54 53 51 50 50 51 52 55 58 61 64 66 67 67 65 62 60 58 57 59 60 62 64 64 63 61 59 57 54 51 47 44 42 39 37 36 35 33 31 29 27 25 24 23 23 23
68 68 67 66 65 63 62 60 60 59 58 58 58 59 59 60 60 60 61 62 62 63 64 64 65 65 64 63 62 61 61 60 58 57 56 55 55 55 55 53 51 49 46 44 43 43 43 46 49 52 54 56 57 59 59 58 58 57 58 59 60 61 62 61 60 58 56 54 52 50 48 45 43 40 38 36 34 33 31 29 28 26 25 24 24 24
66 65 63 62 61 60 60 59 59 59 60 60 60 61 62 62 63 63 64 64 65 65 65 65 65 65 64 63 62 61 60 60 59 58 56 55 54 53 52 50 47 44 41 39 38 38 39 42 45 47 48 47 48 49 52 53 54 55 55 55 54 53 52 51 50 48 47 46 44 43 41 39 37 36 34 33 32 32 31 30 29 28 27 26 25 25
Wind_Speed
49 48 48 47 47 46 45 44 43 42 41 41 41 41 41 40 40 39 39 38 38 37 37 36 35 34 33 32 31 31 30 30 30 30 30 30 30 30 30 30 30 30 29 29 28 28 28 28 27 27 27 27 27 27 27 27 27 27 27 27 27 27 27 27 27 27 27 27 27 27 27 27 27 27 27 27 27 27 27 26 26 26 26 26 26 26
47 47 46 46 45 45 44 43 41 41 40 40 40 40 40 40 40 39 38 38 37 36 36 35 34 33 32 31 31 30 30 30 30 30 30 30 30 30 30 30 30 29 29 29 28 28 28 28 27 27 27 27 27 27 27 27 27 27 27 27 27 27 27 27 28 28 28 28 28 28 28 28 28 28 28 28 27 27 27 27 27 27 26 26 26 26
46 45 45 44 44 43 43 42 41 40 40 40 40 40 40 40 39 39 38 37 37 36 35 34 33 32 31 31 30 30 30 30 30 30 30 30 30 30 30 30 30 29 29 29 28 28 28 28 28 28 28 28 28 28 27 27 27 27 27 27 27 27 27 28 28 28 28 28 28 28 28 28 28 28 28 28 28 28 28 27 27 27 27 26 26 26
45 44 44 44 43 42 42 41 41 40 40 40 40 40 39 39 39 38 37 37 36 35 34 33 32 31 31 30 30 29 29 30 30 30 30 30 31 31 31 30 30 30 29 29 28 28 28 28 28 28 28 28 28 28 28 28 27 27 27 27 27 27 28 28 28 28 28 29 29 29 29 29 29 29 29 29 29 28 28 28 28 28 27 27 26 26
44 44 44 43 42 42 41 41 40 40 40 40 40 40 39 39 38 38 37 36 35 34 33 32 31 31 30 30 29 29 29 30 30 30 30 31 31 31 31 31 30 30 29 29 29 28 28 28 28 28 28 28 28 28 28 28 28 28 28 28 28 28 28 28 29 29 29 29 29 29 29 29 29 29 29 29 29 29 29 29 28 28 28 27 27 27
43 43 43 43 42 42 41 41 40 40 40 40 40 39 39 38 38 37 36 35 34 33 32 32 31 30 30 29 29 29 30 30 30 31 31 31 31 31 31 31 30 30 29 29 29 29 29 28 28 28 28 28 28 28 28 28 28 28 28 28 28 28 29 29 29 29 29 30 30 30 30 30 30 30 30 30 30 30 29 29 29 29 28 28 28 27
43 43 43 42 42 41 41 40 40 40 40 40 39 39 38 38 37 36 35 34 33 32 32 31 30 30 29 29 29 30 30 30 31 31 31 31 31 31 31 31 30 30 30 29 29 29 29 29 29 29 29 29 29 28 28 28 28 28 28 28 29 29 29 30 30 30 30 30 30 30 30 30 30 30 30 30 30 30 30 30 29 29 29 28 28 28
43 43 42 42 42 41 41 40 40 40 40 39 39 38 38 37 36 35 35 34 33 32 31 30 30 30 30 30 30 30 31 31 31 31 31 31 31 31 31 31 30 30 30 29 29 29 29 29 29 29 29 29 29 29 29 29 29 29 29 29 29 30 30 30 30 30 31 31 31 31 31 31 31 31 31 31 31 31 30 30 30 29 29 29 29 28
43 43 42 42 41 41 41 40 40 39 39 39 38 38 37 36 35 35 34 33 32 31 30 30 30 30 30 30 30 31 31 31 31 31 31 31 31 31 31 31 30 30 30 30 30 30 30 30 30 30 30 29 29 29 29 29 29 29 29 30 30 30 30 31 31 31 31 31 31 31 31 31 31 31 31 31 31 31 31 31 30 30 30 29 29 29
43 42 42 42 41 41 40 40 40 39 39 38 38 37 36 35 34 33 32 32 31 31 30 30 30 30 30 31 31 31 31 31 31 31 31 31 31 31 31 31 30 30 30 30 30 30 30 30 30 30 30 30 30 30 30 30 30 30 30 30 30 31 31 31 31 31 31 32 32 32 32 32 32 32 32 32 32 32 31 31 31 30 30 30 29 29
42 42 42 41 41 40 40 39 39 39 38 38 37 36 35 34 33 32 31 31 30 30 31 31 31 31 31 31 31 31 31 31 31 31 31 31 31 31 31 30 30 30 30 30 30 30 30 30 30 30 30 30 30 30 30 30 30 30 30 31 31 31 31 31 32 32 32 32 32 32 32 32 32 32 32 32 32 32 32 31 31 31 30 30 30 29
42 42 42 41 41 40 39 39 39 38 38 37 36 35 34 33 32 31 31 30 30 31 31 31 31 31 31 31 31 31 31 31 32 32 32 31 31 31 31 30 30 30 30 30 30 30 30 31 31 31 31 31 30 30 30 31 31 31 31 31 31 32 32 32 32 32 32 32 32 32 32 32 33 32 32 32 32 32 32 32 31 31 31 30 30 30
42 42 41 41 40 40 39 39 38 38 37 36 35 34 33 32 31 31 31 31 31 31 31 32 32 32 31 31 31 31 32 32 32 32 32 31 31 31 31 30 30 30 30 30 30 30 31 31 31 31 31 31 31 31 31 31 31 31 31 32 32 32 32 32 32 32 32 32 32 33 33 33 33 33 33 33 32 32 32 32 32 31 31 31 30 30
42 42 41 41 40 39 39 38 37 37 36 35 34 33 32 31 31 31 31 31 32 32 32 32 32 31 31 31 31 32 32 32 32 32 32 31 31 31 31 31 30 30 30 30 30 31 31 31 31 31 31 31 31 31 31 31 32 32 32 32 32 32 32 32 32 32 32 32 32 33 33 33 33 33 33 33 33 33 32 32 32 32 31 31 31 30
42 42 41 40 40 39 38 37 37 36 35 34 33 32 32 32 32 32 32 32 32 32 32 31 31 31 31 31 31 32 32 32 32 31 31 31 30 30 31 31 31 30 30 30 31 31 31 31 31 31 31 31 31 32 32 32 32 32 32 32 32 32 32 32 32 32 32 32 32 33 33 33 33 33 33 33 33 33 33 32 32 32 32 31 31 31
42 41 40 40 39 38 37 37 36 35 34 33 33 32 32 32 32 33 32 32 32 32 31 31 31 31 31 31 31 32 32 32 31 31 31 30 30 30 30 31 31 30 30 31 31 31 31 31 31 31 32 32 32 32 32 32 32 32 32 32 32 32 32 32 32 32 32 32 32 33 33 33 33 33 33 33 33 33 33 32 32 32 32 32 32 31
41 40 40 39 38 37 37 36 35 34 34 33 33 32 33 33 33 33 32 32 32 31 31 31 31 31 31 31 31 31 31 31 31 31 30 30 30 30 30 31 31 31 31 31 31 31 31 31 32 32 32 32 32 32 32 32 32 33 33 33 33 33 33 33 33 33 33 33 33 33 33 33 33 33 33 33 33 33 33 33 33 32 32 32 32 32
40 39 38 38 37 36 36 35 34 34 33 33 33 33 33 33 33 32 32 31 31 31 31 31 31 31 31 31 31 31 31 31 31 30 30 30 30 30 30 31 31 31 31 31 32 32 32 32 32 32 32 32 32 33 33 33 33 33 33 33 33 33 33 33 33 33 33 33 33 33 33 33 33 33 33 33 33 33 33 33 33 33 32 32 32 32
39 38 37 37 36 36 35 34 34 33 33 33 33 33 33 33 32 31 31 30 30 30 30 31 31 31 31 31 31 30 30 31 30 30 30 30 30 30 31 31 31 31 32 32 32 32 32 32 32 32 32 33 33 33 33 33 33 33 33 33 33 33 33 33 33 33 33 33 33 33 33 33 33 33 33 33 33 33 33 33 33 33 33 33 32 32
37 37 36 36 35 35 34 34 33 33 33 33 33 33 32 32 31 31 30 30 30 30 30 30 30 30 30 30 30 30 30 30 30 30 30 30 30 30 31 31 31 32 32 32 32 32 33 33 33 33 33 33 33 33 33 33 33 33 33 33 33 33 33 33 33 33 33 33 33 33 33 33 33 33 33 33 33 33 33 33 33 33 33 33 33 32
36 35 35 35 35 34 34 34 33 33 33 33 33 32 31 31 30 30 30 30 30 30 30 30 30 30 30 30 30 30 30 30 30 30 30 30 30 30 31 31 32 32 32 32 32 33 33 33 33 33 33 34 34 34 34 34 33 33 33 33 33 33 33 33 33 34 34 34 34 34 34 34 34 34 34 34 33 33 33 33 33 33 33 33 33 32
35 35 35 35 35 34 34 34 33 33 33 33 32 31 30 30 30 30 30 30 30 30 30 30 30 30 30 30 30 30 30 30 30 30 30 30 30 31 31 32 32 32 32 32 33 33 33 33 33 34 34 34 34 34 34 34 34 34 34 34 34 34 34 34 34 34 34 34 34 34 34 34 34 34 33 33 33 33 33 33 33 33 33 33 32 32
35 35 35 35 35 34 34 34 33 33 32 32 31 30 30 30 30 30 30 30 30 30 30 30 30 29 29 29 29 29 30 30 30 30 30 30 30 31 31 32 32 32 32 33 33 33 33 33 34 34 34 34 34 34 34 34 34 34 34 34 34 34 34 34 34 34 34 34 34 34 33 33 33 33 33 33 33 33 33 33 33 33 32 32 32 32
36 36 35 35 35 34 34 33 33 32 31 31 30 30 30 30 30 30 30 30 30 30 29 29 29 29 29 29 29 30 30 30 30 31 31 31 31 31 32 32 33 33 33 33 33 33 33 34 34 34 34 34 34 34 34 34 34 34 34 34 34 34 34 34 34 34 34 34 33 33 33 33 33 33 33 33 33 33 33 33 33 32 32 32 32 32
36 36 35 34 34 33 33 32 32 31 30 30 29 29 29 30 30 30 30 30 29 29 29 29 29 29 29 29 29 30 30 30 31 31 31 32 32 32 32 33 33 33 33 33 33 33 34 34 34 34 34 34 34 34 34 34 34 34 34 34 34 34 34 34 34 34 33 33 33 33 33 33 33 33 33 33 33 33 33 33 33 33 33 33 33 32
35 35 34 33 33 32 32 31 30 30 29 29 29 29 29 29 29 30 29 29 29 29 29 29 29 29 29 29 30 30 30 31 31 32 32 32 32 33 33 33 33 33 33 33 33 34 34 34 34 34 34 34 34 34 34 34 34 34 34 34 34 34 34 34 34 33 33 33 33 33 33 33 33 33 33 33 33 33 33 33 33 33 33 33 33 33
34 33 32 32 31 31 30 30 29 29 29 29 29 29 29 29 29 29 29 29 29 29 29 29 29 29 29 30 30 30 31 31 32 32 33 33 33 33 33 33 33 34 34 34 34 34 34 34 34 34 34 34 34 34 34 34 34 34 34 34 34 34 34 34 34 33 33 33 33 33 33 33 33 33 33 33 33 34 34 34 34 34 34 34 34 34
32 31 31 30 30 29 29 29 29 29 29 29 29 29 29 29 29 29 29 29 29 29 30 30 30 30 30 30 30 31 32 32 33 33 34 34 34 33 33 34 34 34 34 34 34 34 34 34 34 34 34 34 34 34 34 35 35 35 35 35 34 34 34 34 34 33 33 33 33 33 33 33 33 33 34 34 34 35 35 35 35 35 35 35 35 35
31 30 30 29 29 29 28 28 28 28 29 29 29 29 29 29 29 29 29 29 29 29 30 30 30 30 30 30 31 31 32 33 33 34 34 34 34 34 34 34 34 34 34 34 34 34 34 34 34 34 34 35 35 35 35 35 35 35 35 35 35 34 34 34 34 34 33 33 33 33 33 33 34 34 35 35 35 36 36 36 36 36 36 36 36 35
30 29 29 29 28 28 28 28 28 28 29 29 29 29 29 29 29 29 29 29 29 29 30 30 30 31 31 31 31 31 32 33 33 34 34 34 34 34 35 34 34 34 34 34 34 34 34 34 35 35 35 35 35 35 35 35 35 35 35 35 35 35 35 34 34 34 34 34 34 34 34 34 35 35 36 36 37 37 37 37 37 37 37 36 36 36
29 29 28 28 28 28 28 28 28 28 29 29 29 29 29 28 29 29 29 29 29 30 30 30 31 31 31 31 31 31 32 32 33 34 34 35 35 35 35 35 35 35 35 35 35 35 35 35 35 35 35 35 35 35 35 35 35 35 35 35 35 35 35 35 35 35 35 35 35 35 35 36 36 37 37 37 38 38 38 38 37 37 37 36 36 35
29 29 28 28 28 28 28 28 28 28 28 28 28 28 28 28 28 28 29 29 30 30 30 31 31 31 31 31 31 31 32 32 33 34 34 35 35 35 35 35 35 35 35 35 35 35 35 35 35 36 36 36 36 35 35 35 35 36 36 36 36 36 36 36 36 36 36 36 36 36 37 37 37 38 38 38 38 38 38 38 37 37 36 36 36 35
29 28 28 28 28 28 28 28 28 28 28 28 28 28 28 28 28 29 29 29 30 30 30 31 31 31 31 31 31 32 32 33 33 34 34 35 35 35 35 35 35 35 35 36 36 36 36 36 36 36 36 36 36 36 35 35 36 36 36 36 36 36 37 37 37 37 37 37 37 38 38 38 39 39 39 39 39 38 38 38 37 37 36 36 36 35
29 28 28 28 28 28 28 28 28 27 27 27 27 28 28 28 29 29 29 30 30 30 30 31 31 31 31 32 32 32 33 33 34 35 35 35 35 35 35 35 35 36 36 36 36 36 36 36 36 36 36 36 36 36 36 36 36 36 37 37 37 37 37 38 38 38 38 38 39 39 39 39 39 39 39 39 39 38 38 37 37 36 36 36 36 36
28 28 28 28 28 27 27 27 27 27 27 27 27 28 28 29 29 29 30 30 30 30 31 31 31 32 32 32 32 33 33 34 34 35 35 35 36 36 36 36 36 36 36 36 36 36 36 36 36 36 37 37 36 36 36 36 36 37 37 37 38 38 38 39 39 39 39 39 40 40 40 40 40 40 40 39 38 38 37 37 36 36 36 36 36 36
28 27 27 27 26 26 26 26 26 26 26 27 27 28 28 29 29 29 30 30 31 31 31 31 32 32 33 33 33 33 34 34 35 35 36 36 36 36 36 36 36 36 36 36 36 36 36 36 37 37 37 37 37 36 36 36 36 37 37 38 38 39 39 39 39 40 40 40 40 40 40 40 40 40 39 39 38 37 37 36 36 36 36 37 37 37
26 26 26 25 25 25 25 25 26 26 26 27 27 28 28 29 29 30 30 30 31 31 31 32 32 33 33 33 34 34 34 35 35 36 36 36 37 37 37 37 37 37 36 36 36 36 36 36 37 37 37 37 37 37 36 36 36 36 37 37 38 39 39 39 40 40 40 41 41 41 41 40 40 39 39 38 37 37 37 36 37 37 37 37 37 37
24 24 24 24 24 24 25 25 26 26 27 27 28 28 29 29 29 30 30 30 31 31 32 32 32 33 33 34 34 35 35 35 36 36 36 37 37 37 37 37 37 37 36 36 36 36 36 36 37 37 37 37 37 36 36 36 36 36 36 37 38 39 39 40 40 40 41 41 41 40 40 40 39 38 38 37 37 37 37 37 37 37 38 38 38 38
23 23 23 23 24 24 25 25 26 26 27 28 28 28 29 29 29 30 30 30 31 31 32 32 33 33 34 34 35 35 35 36 36 36 37 37 37 37 37 37 36 36 36 36 36 36 36 36 36 37 37 37 37 36 36 36 36 36 36 37 38 38 39 40 40 40 40 40 40 40 39 38 38 37 37 37 37 37 37 37 38 38 38 39 39 39
22 22 23 23 24 25 25 26 26 27 27 28 28 28 29 29 29 30 30 31 31 32 32 33 33 34 34 35 35 35 36 36 36 36 36 36 36 36 36 36 36 36 35 35 36 36 36 36 37 37 37 37 37 37 36 36 36 36 36 37 37 38 39 39 39 39 39 39 39 38 38 37 37 37 36 37 37 37 38 38 39 39 39 39 40 40
22 22 23 24 24 25 26 26 27 27 27 28 28 28 29 29 30 30 31 31 32 32 33 33 34 34 35 35 35 35 36 36 36 36 35 35 35 35 35 35 35 35 35 35 36 36 36 37 37 37 37 37 37 37 37 37 37 37 37 37 37 38 38 38 38 38 38 38 38 37 37 37 36 37 37 37 38 38 39 39 39 40 40 40 40 40
22 23 23 24 25 25 26 26 26 27 27 28 28 29 29 30 30 31 31 32 32 32 33 34 34 35 35 35 35 35 35 35 35 34 34 34 33 34 34 34 34 34 35 35 36 36 37 37 37 38 38 38 38 38 38 38 38 38 38 37 37 38 38 38 38 38 37 37 37 37 37 37 37 37 38 38 39 39 39 40 40 40 40 40 41 41
23 23 24 24 25 25 26 26 26 27 27 28 28 29 30 30 31 31 32 32 32 33 33 34 34 35 35 35 34 34 34 34 33 33 33 33 33 33 33 34 34 35 35 36 37 37 38 38 38 38 39 39 39 39 40 40 40 39 39 38 38 38 38 38 37 37 37 37 37 37 37 37 38 38 39 39 39 40 40 40 40 41 41 41 42 42
23 23 24 24 25 25 26 26 27 27 28 28 29 29 30 31 31 32 32 33 33 33 34 34 34 34 34 34 33 33 33 32 32 32 32 32 33 33 34 34 35 36 36 37 38 39 39 39 39 39 40 40 40 41 41 41 41 41 40 39 39 39 39 38 38 38 38 38 38 38 38 39 39 40 40 40 40 40 41 41 41 41 41 42 42 43
23 23 24 24 25 26 26 27 27 28 29 29 29 30 30 31 32 32 33 33 33 33 33 33 33 33 33 33 32 32 32 32 32 32 32 33 33 34 35 36 37 38 38 39 40 40 41 41 41 41 41 41 41 42 42 42 42 42 41 40 40 40 39 39 39 39 39 39 39 39 40 40 40 41 41 41 41 41 41 41 42 42 42 43 43 44
23 24 24 25 26 26 27 28 28 29 29 30 30 31 31 32 32 32 33 33 33 33 33 33 32 32 32 32 32 32 32 32 32 32 33 34 35 36 37 38 39 39 40 41 41 41 42 42 42 42 42 42 42 42 43 43 43 42 42 41 40 40 40 40 40 40 40 40 40 41 41 41 42 42 42 42 42 42 42 42 42 43 43 43 44 44
24 24 25 26 27 27 28 28 29 29 30 30 31 31 31 32 32 32 32 32 32 32 32 32 32 32 32 32 32 32 32 33 33 34 34 35 36 37 38 39 40 41 41 42 42 43 43 43 43 43 43 43 43 43 43 43 43 42 42 41 41 41 41 41 41 41 41 41 41 42 42 42 42 43 43 43 43 43 43 43 43 44 44 44 45 45
25 26 26 27 28 28 29 29 30 30 30 31 31 31 32 32 32 32 32 32 32 31 31 31 31 32 32 32 33 33 34 35 35 35 36 37 37 38 39 40 41 42 42 42 43 43 43 43 43 43 43 43 43 43 43 43 42 42 42 41 41 41 41 41 41 41 41 41 42 42 43 43 43 43 43 44 44 44 44 44 44 45 45 45 45 46
26 27 28 28 29 29 29 30 30 30 31 31 31 31 31 32 32 31 31 31 31 31 31 31 32 32 33 34 34 35 36 36 37 37 38 38 39 40 40 41 42 42 42 42 42 42 42 42 42 42 42 42 42 42 42 42 42 41 41 41 40 40 40 40 40 40 41 41 42 42 43 43 43 44 44 44 45 45 45 45 46 46 46 46 46 46
27 28 28 29 29 29 30 30 30 31 31 31 31 31 31 31 31 31 31 31 31 31 31 32 33 33 34 35 36 36 37 38 38 39 39 39 40 40 41 41 42 42 42 42 42 41 41 41 41 41 41 41 41 41 41 41 40 40 40 40 40 40 40 40 40 40 40 41 41 42 42 43 43 43 44 45 45 46 46 46 47 47 47 46 46 47
28 29 29 29 29 30 30 30 30 31 31 31 31 31 31 31 31 31 31 31 31 32 32 33 34 35 35 36 37 38 38 39 39 40 40 41 41 41 41 41 41 41 41 41 40 40 39 39 39 39 39 39 39 39 39 39 39 38 38 38 38 39 39 39 40 40 40 41 41 42 42 42 43 44 44 45 45 46 47 47 48 48 48 47 47 47
Wind_Direction
288 287 287 287 287 287 287 287 286 286 286 286 285 285 285 285 285 285 285 285 285 285 284 284 283 282 280 279 277 276 276 276 276 277 278 279 280 280 281 281 282 282 282 282 282 282 282 282 282 283 283 283 283 284 284 284 284 284 285 285 285 285 286 286 287 288 289 289 291 292 293 294 294 295 295 295 294 294 293 292 291 290 288 287 287 286
287 287 287 287 287 287 287 287 286 286 286 285 285 285 285 285 285 285 285 284 284 284 283 283 282 280 278 277 276 275 275 276 276 277 278 279 280 280 281 281 281 281 282 282 282 282 282 282 282 283 283 283 283 283 284 284 284 284 284 285 285 285 286 286 287 288 289 290 291 292 292 293 294 294 294 294 294 294 293 292 291 290 289 288 287 286
287 287 287 287 287 286 286 286 286 286 285 285 284 284 284 284 284 284 284 284 284 283 282 281 280 278 277 275 275 274 275 275 276 278 278 279 280 280 280 280 281 281 281 281 281 281 282 282 282 282 283 283 283 283 283 284 284 284 284 285 285 286 286 287 287 288 288 289 290 291 292 292 293 293 294 294 294 294 294 293 292 290 289 288 287 286
288 287 287 287 286 286 286 286 285 285 284 284 284 284 284 284 283 283 283 283 283 282 281 280 278 276 275 274 274 274 275 276 277 278 278 279 280 280 280 280 281 281 281 281 281 281 282 282 282 282 282 283 283 283 283 283 284 284 285 285 285 286 286 286 287 287 288 288 289 290 291 291 292 292 293 294 294 294 294 293 292 291 290 289 287 286
287 287 287 286 286 285 285 285 284 284 283 283 283 283 283 283 283 283 282 282 281 281 279 278 276 275 273 273 273 274 275 276 277 278 278 279 279 280 280 280 280 281 281 281 281 282 282 282 282 282 282 283 283 283 283 284 284 284 285 285 285 286 286 286 286 287 287 288 288 289 290 290 291 292 292 293 294 294 294 294 293 292 291 289 288 287
287 286 286 286 285 284 284 284 283 283 283 283 282 282 282 282 282 282 281 281 280 279 277 276 274 273 272 272 273 274 275 276 277 278 278 279 279 279 280 280 280 281 281 281 281 282 282 282 283 283 283 283 283 283 283 284 284 285 285 286 286 286 286 286 286 287 287 287 288 288 289 290 290 291 292 293 293 294 294 293 293 292 291 290 288 287
286 285 285 285 284 284 283 283 282 282 282 282 282 282 282 282 281 281 280 279 278 277 275 273 272 272 271 272 273 274 275 276 277 278 278 278 279 279 279 280 280 280 281 281 282 282 282 283 283 283 283 283 283 283 284 284 285 285 286 286 286 286 286 286 286 287 287 287 288 288 288 289 290 290 291 292 292 293 293 293 292 292 291 290 288 287
285 285 284 284 283 283 282 281 281 281 281 281 281 281 281 281 280 280 279 278 276 274 273 271 271 270 271 272 273 275 276 276 277 277 278 278 279 279 279 280 280 281 281 282 282 283 283 283 283 283 283 283 284 284 284 285 285 286 286 286 286 286 286 286 287 287 287 287 287 288 288 289 289 290 290 291 291 292 292 292 292 291 290 289 288 287
285 284 284 283 282 282 281 281 280 280 280 280 280 280 280 280 279 278 277 275 274 272 271 270 270 270 271 272 274 275 276 277 277 277 278 278 279 279 280 280 281 281 282 282 283 283 283 283 283 283 284 284 284 285 285 285 286 286 286 287 287 287 287 287 287 287 287 287 287 288 288 288 289 289 289 290 290 291 291 291 291 290 290 289 287 286
283 283 283 282 281 281 280 280 279 279 279 279 279 279 279 279 278 277 275 273 272 271 270 270 270 271 272 273 274 275 276 276 277 277 278 278 278 279 279 280 280 281 282 282 282 283 283 283 283 283 284 284 284 285 285 286 286 287 287 287 287 287 287 287 287 287 287 287 287 287 288 288 288 288 289 289 289 290 290 290 290 290 289 288 287 286
283 282 282 281 281 280 279 278 278 278 278 278 278 278 278 277 276 275 273 271 270 270 269 270 271 272 273 274 275 275 276 276 277 277 277 278 278 279 279 279 280 281 281 282 282 282 282 283 283 283 284 284 285 285 285 286 286 286 287 287 287 287 287 287 287 287 287 287 287 287 287 287 288 288 288 288 289 289 289 289 289 289 288 287 286 285
282 282 281 280 280 279 278 277 277 277 277 277 277 277 276 275 274 272 271 270 269 269 269 270 271 272 273 274 275 275 276 276 276 277 277 277 278 278 279 279 280 280 281 281 281 282 282 282 283 283 283 284 284 285 285 286 286 286 286 286 286 286 286 286 286 286 287 287 287 287 287 287 287 287 287 287 288 288 288 288 288 288 287 287 286 285
281 281 280 279 279 278 277 276 276 276 276 276 276 275 274 273 272 270 269 269 269 269 269 270 271 272 274 274 275 276 276 276 277 277 277 278 278 279 279 279 280 280 280 281 281 281 282 282 282 283 283 284 284 285 285 285 285 286 286 286 286 286 286 286 286 286 286 286 286 286 286 286 286 286 286 287 287 287 287 287 287 287 287 286 285 285
280 280 279 278 278 276 276 275 274 274 274 274 274 273 272 271 269 268 268 268 268 269 270 271 272 273 274 274 275 275 276 276 277 277 277 278 278 278 279 279 280 280 280 280 281 281 281 282 282 282 283 283 284 284 285 285 285 285 285 285 285 285 285 285 285 285 285 285 285 285 285 285 286 286 286 286 286 286 286 287 287 286 286 286 285 284
280 279 278 277 276 275 274 273 273 273 273 272 272 270 269 268 267 267 267 268 268 269 270 271 272 273 273 274 274 275 276 276 276 277 277 278 278 278 279 279 279 280 280 280 281 281 281 281 282 282 282 283 283 284 284 284 284 285 285 285 285 285 285 285 285 285 285 285 285 285 285 285 285 285 285 285 285 286 286 286 286 286 285 285 285 284
279 278 277 276 274 273 272 272 271 271 271 270 269 268 267 266 267 267 267 268 269 270 271 271 272 273 273 274 274 275 275 276 276 276 277 277 278 278 279 279 279 280 280 280 281 281 281 281 282 282 282 283 283 283 284 284 284 284 284 285 285 285 285 285 285 285 285 285 285 285 285 285 285 285 285 285 285 285 285 285 285 285 285 285 284 283
278 277 275 274 272 271 271 270 270 269 269 268 267 266 266 266 267 267 268 268 269 270 270 271 272 272 273 273 274 275 275 276 276 276 277 278 278 279 279 280 280 280 281 281 281 281 281 282 282 282 283 283 283 284 284 284 284 284 285 285 285 285 285 286 286 286 285 285 285 285 285 285 284 284 284 284 284 284 284 284 284 284 284 284 283 283
276 275 274 272 271 270 269 269 268 267 266 266 265 265 266 267 267 268 268 269 269 270 270 271 272 273 273 274 274 274 275 276 276 277 277 278 278 279 279 280 280 281 281 282 282 282 282 282 282 283 283 283 284 284 284 284 285 285 285 285 285 285 286 286 286 286 285 285 285 285 285 284 284 284 284 284 284 284 284 284 284 283 283 283 283 282
275 274 272 270 269 268 268 267 266 265 264 264 264 265 266 267 267 268 268 269 269 270 271 272 272 273 274 274 275 275 275 276 277 277 277 278 278 279 280 280 281 281 282 282 282 282 282 283 283 283 283 284 284 284 284 285 285 285 285 285 285 286 286 286 286 286 286 285 285 285 285 284 284 284 284 284 283 283 283 283 283 283 283 282 282 282
273 272 270 269 268 267 265 265 264 263 263 263 264 265 266 267 267 267 268 269 270 271 271 272 273 274 274 275 275 276 276 276 277 277 278 278 278 279 280 280 281 281 282 282 282 282 283 283 283 284 284 284 284 285 285 285 285 285 285 285 286 286 286 286 285 285 285 285 285 285 284 284 284 284 283 283 283 283 283 283 282 282 282 282 281 281
272 270 268 267 266 265 263 263 262 262 262 263 264 265 266 266 267 268 269 269 270 271 272 273 274 274 275 275 276 276 276 277 277 277 278 278 278 279 280 280 281 281 282 282 282 283 283 283 284 284 284 285 285 285 285 285 285 285 285 285 285 285 285 285 285 285 285 285 284 284 284 284 284 283 283 283 283 283 282 282 282 282 282 281 281 280
270 268 267 265 264 263 262 262 261 261 262 263 264 265 266 266 267 268 269 270 271 272 273 273 274 274 275 275 276 276 276 277 277 277 278 278 279 280 280 281 281 281 282 282 283 283 283 284 284 284 285 285 285 285 285 285 285 285 285 285 285 285 285 285 285 284 284 284 284 284 284 283 283 283 283 283 282 282 282 282 282 281 281 281 280 280
268 266 265 264 262 261 261 261 261 262 262 263 264 265 266 267 268 269 270 271 272 272 273 273 274 274 275 276 276 276 277 277 278 278 279 279 280 280 281 281 281 282 282 283 283 283 284 284 284 285 285 285 285 285 285 285 285 285 285 285 285 285 285 284 284 284 284 284 284 283 283 283 283 283 282 282 282 282 282 281 281 281 281 280 280 279
266 264 262 261 260 260 260 260 261 262 262 263 265 266 267 268 269 270 271 272 272 273 273 274 274 275 275 276 276 277 277 278 278 279 280 280 281 281 281 281 282 283 283 283 284 284 284 285 285 285 285 285 285 285 285 285 285 285 285 285 285 285 284 284 284 284 284 283 283 283 283 282 282 282 282 282 282 281 281 281 281 280 280 280 279 279
263 261 260 259 259 259 260 260 261 262 263 264 265 266 268 269 270 271 272 272 273 273 274 274 275 276 276 276 277 277 278 279 279 280 281 281 281 281 282 282 283 283 284 284 284 285 285 285 285 285 285 285 285 285 285 285 285 285 285 285 284 284 284 284 283 283 283 283 283 282 282 282 282 282 281 281 281 281 281 280 280 280 279 279 278 278
260 259 258 258 259 259 260 261 262 263 264 265 266 268 269 270 271 271 272 273 273 274 274 275 276 276 276 277 278 278 279 279 280 281 281 282 282 282 283 283 284 284 285 285 285 285 285 285 285 286 286 286 286 285 285 285 285 285 285 284 284 284 284 283 283 283 282 282 282 282 282 282 281 281 281 281 281 281 280 280 280 279 279 278 277 277
259 259 259 259 259 260 261 262 263 264 265 266 267 268 269 270 271 272 272 273 274 274 275 276 277 277 277 278 279 279 280 280 281 281 282 282 283 283 284 284 284 285 285 286 286 286 285 286 286 286 286 286 285 285 285 285 285 285 284 284 284 283 283 283 282 282 282 282 282 281 281 281 281 281 281 281 281 281 280 280 279 279 278 277 277 276
260 259 259 260 260 261 262 263 264 265 266 267 268 269 270 271 271 272 273 273 274 275 276 277 277 278 278 279 280 280 281 281 282 282 283 283 284 284 285 285 285 286 286 286 286 286 286 286 286 286 286 286 285 285 285 285 285 284 284 284 283 283 282 282 282 281 281 281 281 281 281 281 281 282 282 281 281 281 280 280 279 278 278 277 276 276
260 260 260 261 262 263 263 264 265 266 267 268 269 270 270 271 272 273 273 274 275 276 277 277 278 279 279 280 281 281 282 283 283 283 284 284 285 285 286 286 286 286 286 286 286 286 286 286 286 286 286 286 286 285 285 285 284 284 284 283 283 282 282 281 281 281 280 280 280 281 281 281 281 282 282 282 282 281 281 280 279 278 277 277 276 275
261 261 261 262 263 263 264 265 266 267 268 269 269 270 271 272 273 273 274 275 276 276 277 278 279 280 280 281 282 282 283 283 284 284 285 285 286 286 287 287 287 287 287 287 287 286 286 286 286 286 286 286 286 285 285 285 284 284 284 283 283 282 282 281 281 280 280 280 280 280 281 281 282 282 282 282 282 281 281 280 279 278 277 276 276 275
261 261 262 263 264 264 265 266 267 268 269 269 270 271 272 273 274 275 275 276 277 277 278 279 279 280 281 282 282 283 283 284 284 284 285 286 287 287 287 288 288 287 287 287 287 287 286 286 286 286 286 286 285 285 285 284 284 284 283 283 283 282 282 281 281 280 280 280 280 280 281 281 282 282 282 282 282 281 281 280 279 278 277 276 275 275
262 262 263 264 265 266 267 267 268 269 270 270 271 272 273 274 275 276 276 277 277 278 279 279 280 281 282 282 283 284 284 284 284 284 285 286 287 287 287 288 288 288 288 287 287 287 287 286 286 286 286 285 285 285 285 284 284 284 283 283 282 282 282 281 281 280 280 280 280 281 281 282 282 283 283 282 282 281 280 279 278 277 276 275 275 274
263 264 265 266 266 267 268 268 269 270 271 272 273 273 274 275 275 276 277 278 278 279 280 281 281 282 282 283 283 284 284 284 284 285 285 286 286 287 287 287 287 288 288 287 287 287 287 286 286 286 286 286 285 285 285 284 284 284 283 283 283 282 282 282 281 281 281 280 281 281 281 282 282 283 283 282 282 281 280 278 277 276 275 274 274 274
265 266 266 267 268 268 269 269 270 271 272 273 274 275 275 276 277 277 278 279 280 280 281 282 282 283 283 283 283 284 284 285 285 286 286 286 287 287 287 287 287 287 287 287 287 287 287 287 287 287 287 286 286 286 286 285 285 284 284 284 283 283 283 282 282 281 281 281 281 281 282 282 282 283 282 282 281 280 279 277 276 275 274 274 274 274
266 267 267 268 268 269 269 270 271 272 273 274 275 275 276 277 278 278 279 280 281 281 282 282 283 283 283 284 284 284 285 285 286 286 287 287 287 288 287 287 287 287 287 287 287 287 287 287 287 287 287 287 287 287 287 287 286 286 285 285 285 284 284 283 283 282 282 281 281 282 282 282 282 282 282 281 280 279 277 276 275 274 274 274 274 274
266 267 267 268 268 269 270 270 271 272 273 274 275 276 277 278 278 279 280 281 281 282 282 283 283 283 284 284 285 285 286 286 286 287 287 287 288 288 288 288 288 288 287 287 288 288 288 288 288 288 288 288 289 289 288 288 288 287 287 287 286 286 285 284 284 283 282 282 282 282 282 282 282 281 281 280 279 278 276 275 275 274 274 274 274 275
266 267 267 268 268 269 270 271 272 273 274 275 275 276 277 278 279 280 280 281 282 282 283 283 284 285 285 286 286 287 287 287 287 287 287 288 288 288 288 288 288 288 288 288 288 288 288 289 289 289 289 289 290 290 289 289 289 288 288 288 288 287 286 286 285 284 283 282 282 282 282 281 281 280 280 279 277 276 276 275 275 275 275 275 275 275
266 267 267 268 269 270 271 272 273 274 275 275 276 277 277 278 279 280 281 282 282 283 284 285 285 286 286 287 287 287 288 288 288 288 288 288 289 289 289 289 289 289 289 289 289 289 289 289 289 290 290 290 290 290 290 290 289 289 289 289 289 288 288 287 285 284 283 283 282 281 281 280 280 279 278 277 277 276 276 276 276 276 276 276 276 276
267 268 269 270 271 272 273 273 274 274 275 275 276 277 278 279 280 281 282 283 284 284 285 286 286 286 287 287 287 288 288 288 288 289 289 289 289 289 289 289 289 289 290 290 289 289 289 289 289 289 290 290 290 290 290 290 290 290 290 290 290 289 289 288 286 285 284 283 282 281 280 279 279 278 277 277 276 276 276 276 276 277 277 277 277 277
269 270 271 272 272 273 273 274 274 275 276 277 278 279 280 281 282 283 284 284 285 285 286 286 286 287 287 287 288 288 288 289 289 289 289 289 290 290 290 290 289 289 290 289 289 289 289 289 289 289 289 289 289 289 289 289 289 290 290 290 290 290 289 288 287 285 284 282 281 280 279 278 277 277 276 276 276 277 277 277 278 278 278 278 278 278
271 271 272 272 273 273 274 275 276 277 278 279 281 282 283 283 284 285 285 285 286 286 286 287 287 287 288 288 288 289 289 289 289 289 289 289 290 290 290 290 290 290 289 289 289 289 289 289 289 289 289 289 288 288 288 288 289 289 290 290 291 291 290 288 287 285 284 282 280 279 278 277 277 276 276 277 277 278 278 278 278 278 278 278 279 279
271 271 272 273 273 274 276 277 278 280 281 282 283 284 284 285 285 285 285 286 286 286 287 287 287 287 288 288 288 289 289 289 289 289 289 289 289 289 290 290 290 290 290 289 289 289 289 289 289 288 288 288 287 287 287 287 288 289 289 290 290 290 289 288 287 285 283 281 280 278 277 277 277 277 277 277 278 279 279 279 279 279 279 279 280 280
271 272 273 274 275 276 278 279 281 282 283 284 284 285 285 285 286 286 286 286 286 287 287 287 287 288 288 288 288 288 288 288 288 288 289 289 289 289 290 290 290 290 290 289 289 289 289 288 288 287 287 287 286 286 286 287 287 288 289 289 290 290 289 287 286 284 282 281 279 278 277 277 277 277 278 278 279 279 280 280 280 280 280 281 281 281
272 273 275 276 277 279 280 281 282 284 284 285 285 285 286 286 286 286 286 287 287 287 287 288 288 288 288 288 288 288 288 288 288 288 289 289 289 290 290 290 290 290 290 289 289 289 288 288 287 287 286 286 285 285 286 286 287 288 288 289 289 289 288 287 285 283 281 280 279 278 277 278 278 278 278 279 279 280 280 280 281 281 281 281 282 282
274 275 276 278 279 280 282 283 284 284 285 285 285 286 286 286 286 286 287 287 287 287 288 288 288 288 288 288 288 288 288 288 288 289 289 290 290 290 290 290 290 290 290 289 289 288 288 287 287 286 285 285 285 285 285 286 287 288 288 289 289 288 287 286 285 283 281 279 278 278 278 278 278 279 279 280 280 280 281 281 281 282 282 282 283 283
276 277 278 280 281 282 283 283 284 284 285 285 285 286 286 286 286 287 287 287 287 287 287 287 287 287 288 288 288 288 288 288 289 289 290 291 291 291 291 291 291 290 290 289 289 288 288 287 286 286 285 285 285 285 285 286 287 288 288 289 288 288 287 286 285 283 281 280 279 278 278 278 279 279 280 281 281 281 282 282 282 282 283 283 284 284
278 279 280 281 282 282 283 284 284 284 285 285 286 286 286 286 286 286 286 286 287 287 287 287 287 287 288 288 289 289 289 289 290 290 290 291 291 291 291 291 291 291 290 290 289 288 288 287 286 286 285 285 285 285 286 286 287 288 288 288 288 288 287 286 286 285 283 281 280 279 279 279 279 280 281 281 282 282 282 283 283 283 284 284 284 285
280 280 281 281 282 282 283 283 284 285 285 286 286 286 286 286 286 286 286 286 286 286 287 287 288 288 289 289 289 290 290 290 290 290 290 290 291 291 291 291 291 291 291 290 290 289 288 287 287 286 286 286 286 286 286 287 287 288 288 288 288 287 287 286 286 285 284 283 281 280 280 280 280 281 281 282 283 283 284 284 284 284 284 285 285 286
281 281 281 282 282 283 283 284 284 285 285 286 286 286 286 286 286 286 286 286 286 287 287 288 289 289 289 290 290 290 290 290 291 291 291 291 291 291 291 291 291 291 291 291 290 289 289 288 288 287 287 287 287 287 287 288 288 288 288 288 288 287 287 287 286 286 285 284 283 282 281 281 281 281 282 283 284 284 285 285 285 285 285 285 286 286
281 281 282 282 283 283 284 284 285 285 285 286 286 286 286 286 285 286 286 286 287 287 288 289 289 290 290 291 291 291 291 291 291 291 291 292 292 292 292 292 292 292 292 291 291 290 290 289 289 288 288 288 288 289 289 289 289 289 289 289 288 288 288 287 287 286 286 285 284 284 283 283 283 283 283 284 285 285 286 286 286 286 286 286 286 286
281 281 282 282 283 283 284 284 285 285 286 286 286 286 286 286 285 285 285 286 286 287 288 289 290 291 291 291 292 292 292 292 292 292 292 292 293 293 293 293 293 293 293 292 292 291 291 291 290 290 290 290 290 290 291 291 291 290 290 290 289 289 289 288 288 288 287 287 286 286 285 285 285 285 285 285 286 286 286 287 287 287 287 287 286 286